www.pogodaiklimat.ru

Погода и климат >> Архив погоды >> Новая Зеландия >> Квинстаун


ПОГОДА в Квинстауне

  • Прогноз погоды в Квинстауне
  • Монитор погоды в Квинстауне

АРХИВ ПОГОДЫ в Квинстауне

Время (UTC), дата Ветер
(напр.,м/с)
 
Видим.   Явления Облачность Т
(С)
Тd
(С)
f
(%)
Тe
(С)
Тes
(С)
Комфортность P
(гПа)
Po
(гПа)
Тmin
(С)
Tmax
(С)
R
(мм)
R24
(мм)
S
(см)
12 13.09 ЮВ 2 20 км н/о +5.0 +2.9 86 +2 +2 1012.4 969.0 +13.3
15 13.09 ЮВ 1 50 км н/о +3.3 +2.4 94 +3 +3 1011.9 968.2
18 13.09 С 1 50 км н/о +1.4 +0.4 93 -1 -1 1011.9 967.9
21 13.09 СВ 2 20 км н/о +5.5 +3.0 84 +4 +4 1011.5 968.2
00 14.09 З 3 20 км н/о +9.2 +3.7 68 +7 +7 1008.6 966.0 +0.6
03 14.09 З 3 20 км н/о +11.5 +2.3 53 +10 +10 1006.0 963.8
06 14.09 З 2 50 км н/о +9.6 +0.5 53 +8 +8 1005.7 963.2
09 14.09 СВ 1 50 км н/о +4.4 +0.8 77 +3 +3 1007.5 964.2
12 14.09 Ю 2 50 км н/о +2.6 -0.4 81 -1 -1 1008.2 964.6 +12.4
15 14.09 С 2 20 км н/о +1.2 +0.6 96 -3 -3 1008.4 964.6
18 14.09 СВ 3 50 км н/о +0.7 +0.3 97 -4 -4 1008.5 964.6
21 14.09 СВ 1 20 км н/о +5.4 +2.7 83 +4 +4 1008.4 965.2
00 15.09 З 3 20 км н/о +9.8 +3.2 63 +8 +8 1006.5 964.0 -0.3
03 15.09 ЮЗ 3 20 км н/о +12.4 -0.5 41 +11 +11 1003.4 961.5
06 15.09 ЮЗ 5 50 км н/о +11.6 -1.3 41 +10 +10 1003.9 961.8
09 15.09 ЮЗ 2 50 км н/о +8.5 +1.6 62 +7 +7 1003.6 961.1
12 15.09 ЮЗ 4 50 км н/о +10.7 +2.0 55 +9 +9 1002.5 960.4 +13.9
15 15.09 ЮЗ 6 50 км н/о +9.4 +2.8 63 +6 +6 1002.6 960.3
18 15.09 ЮЗ 5 50 км н/о +7.7 +3.5 75 +4 +4 1005.3 962.6
21 15.09 ЮЗ 4 20 км н/о +9.2 +2.9 65 +7 +7 1006.2 963.7
00 16.09 З 3 20 км н/о +12.0 -2.1 37 +11 +11 1002.5 960.5 +5.4
03 16.09 СЗ 3 20 км н/о +11.1 -0.1 46 +10 +10 998.3 956.4
06 16.09 З 3 20 км н/о +6.9 +5.6 91 +4 +4 994.5 952.1 1
09 16.09 ЮЗ 2 50 км н/о +8.1 +6.2 88 +7 +7 993.6 951.4
12 16.09 Ю 4 50 км н/о +7.4 +3.6 77 +4 +4 997.5 955.1 +13.8 3
15 16.09 З 6 50 км н/о +7.3 -4.1 44 +4 +4 1001.9 959.3
18 16.09 Ю 3 50 км н/о +5.0 -3.1 56 +2 +2 1006.4 963.2
21 16.09 ЮЗ 4 20 км н/о +6.0 -2.8 53 +3 +3 1010.7 967.5
00 17.09 ЮЗ 5 20 км н/о +8.6 -3.2 43 +6 +6 1012.9 970.0 +4.6 4
03 17.09 ЮЗ 9 20 км н/о +9.4 -3.9 39 +6 +6 1015.2 972.3
06 17.09 ЮЗ 8 50 км н/о +6.8 -4.0 46 +2 +2 1019.9 976.4
09 17.09 ЮЗ 1 50 км н/о +4.5 -3.5 56 +4 +4 1023.8 979.8
12 17.09 ЮЗ 2 50 км н/о +4.1 -1.8 65 +2 +2 1025.8 981.7 +9.7
15 17.09 ЮЗ 2 50 км н/о +4.5 -2.3 61 +3 +3 1026.9 982.8
18 17.09 З 1 50 км н/о +1.6 -2.9 72 0 0 1028.1 983.5
21 17.09 ЮЗ 2 20 км н/о +5.7 -0.1 66 +4 +4 1028.7 984.7
00 18.09 ЮЗ 5 20 км н/о +12.6 +1.3 46 +11 +11 1027.4 984.5 -0.2
03 18.09 ЮЗ 4 20 км н/о +12.8 -0.4 40 +11 +11 1027.3 984.4
06 18.09 Ю 3 50 км н/о +11.2 +0.5 48 +10 +10 1028.9 985.7
09 18.09 ЮЗ 2 50 км н/о +8.0 +2.1 66 +6 +6 1031.4 987.6
12 18.09 ЮЗ 3 50 км н/о +7.0 +2.2 71 +4 +4 1032.6 988.6 +13.5
15 18.09 С 2 50 км н/о +2.5 -0.9 78 0 0 1033.6 988.9
18 18.09 СВ 1 50 км н/о +2.6 -0.9 78 +1 +1 1034.2 989.5
21 18.09 В 1 20 км н/о +7.6 +1.4 65 +7 +7 1034.6 990.6
00 19.09 ЮЗ 3 20 км н/о +11.8 +1.0 47 +10 +10 1033.1 989.8 +0.3
03 19.09 ЮЗ 3 20 км н/о +14.3 +0.2 38 +14 +14 1030.6 987.8
06 19.09 ЮЗ 6 50 км н/о +12.3 +1.4 47 +10 +10 1032.0 988.9
09 19.09 Ю 5 50 км н/о +9.0 +4.4 73 +6 +6 1034.5 990.8
12 19.09 Ю 4 50 км н/о +7.5 +4.5 81 +4 +4 1036.3 992.2 +14.6
15 19.09 СВ 2 50 км н/о +2.5 +1.1 90 -0 -0 1037.8 992.9
18 19.09 СВ 3 50 км н/о +1.2 +0.3 94 -3 -3 1039.0 993.8
21 19.09 СВ 2 20 км н/о +6.6 +2.8 77 +5 +5 1039.7 995.4
00 20.09 З 3 20 км н/о +10.5 +5.4 71 +9 +9 1037.4 993.7 +0.8
03 20.09 З 3 20 км н/о +12.9 +4.7 57 +12 +12 1034.6 991.4
06 20.09 ЮЗ 3 20 км н/о +11.6 +4.8 63 +10 +10 1034.2 990.9
09 20.09 СВ 2 20 км н/о +6.9 +3.1 77 +5 +5 1036.0 991.9

 

Местоположение метеостанции Квинстаун (Новая Зеландия): широта -45.01 долгота 168.73 высота над уровнем моря 358 м.

В архиве по умолчанию представлена погода в Квинстауне за последнюю неделю. Архивные данные за месяц целиком и за предыдущие месяцы, начиная с января 2011 года, Вы можете получить, выбрав интересующий диапазон дат из раскрывающегося списка и нажав кнопку "Ввод!".


*Определитесь, кто Вы:
робот инопланетянин человек

Внимание! Время в таблицах - всемирное. Для получения местного времени необходимо прибавить поправку, которая равна 12 ч.

Смотрите также архив погоды в соседних городах и на ближайших метеорологических станциях:

Погода в Тара Хилс (Новая Зеландия) (106 км)
Погода в Хаасте (Новая Зеландия) (130 км)
Погода на Острове Секретари (Новая Зеландия) (147 км)
Погода в Данидине (Новая Зеландия) (151 км)
Погода в Инверкаргилле (Новая Зеландия) (159 км)
Погода на Маяке Puysegur Point (Новая Зеландия) (208 км)
Погода в Тимару (Новая Зеландия) (213 км)
Погода на Мысе Юго-западный (Новая Зеландия) (269 км)
Погода в Хокитике (Новая Зеландия) (313 км)
Погода в Крайстчерче (Новая Зеландия) (346 км)

Пояснения к столбцам:

Ветер - указаны скорость ветра в м/с - средняя за 10 мин, порывы в срок и между сроками (в фигурных скобках) и направление, откуда дует ветер: С - северный, СВ - северо-восточный, В - восточный, ЮВ - юго-восточный, Ю - южный, ЮЗ - юго-западный, З - западный, СЗ - северо-западный.
Видимость - горизонтальная дальность видимости в метрах или километрах. При видимости от 1 до 10 км при отсутствии осадков обычно наблюдается дымка, при ухудшении видимости до 1 км и менее - туман. В сухую погоду видимость может ухудшаться дымом, пылью или мглою.
Явления - указаны атмосферные явления, наблюдавшиеся в срок или в последний час перед сроком; фигурными скобками обозначены явления, наблюдавшиеся между сроками (за 1-3 часа до срока); квадратными скобками обозначены град или гололедные отложения с указанием их диаметра в мм.
Облачность - указаны через наклонную черту общая и нижняя облачность в баллах и высота нижней границы облаков в метрах; квадратными скобками обозначены формы облаков: Ci - перистые, Cs - перисто-слоистые, Cc - перисто-кучевые, Ac - высококучевые, As - высокослоистые, Sc - слоисто-кучевые, Ns - слоисто-дождевые, Cu - кучевые, Cb - кучево-дождевые. Подробнее классификацию облаков см. в Атласе облаков (PDF).
T - Температура воздуха - температура, измеренная на высоте 2 м над землей.
Td - Температура точки росы - температура, при понижении до которой содержащийся в воздухе водяной пар достигнет насыщения.
f - Относительная влажность воздуха - влажноcть воздуха, измеренная на высоте 2 м над землей.
Te - Эффективная температура - температура, которую ощущает одетый по сезону человек в тени. Характеристика душности погоды. При расчете учитывается влияние влажности воздуха и скорости ветра на теплоощущения человека.
Tes - Эффективная температура на солнце - температура, которую ощущает человек, с поправкой на солнечный нагрев. Характеристика знойности погоды. Зависит от высоты солнца над горизонтом, облачности и скорости ветра. Ночью, в пасмурную погоду, а также при ветре 12 м/с и более поправка равна нулю.
P - Атмосферное давление - приведенное к уровню моря атмосферное давление.
Po - Атмосферное давление - измеренное на уровне метеостанции атмосферное давление.
Tmin - Минимальная температура - минимум температуры воздуха на высоте 2 м над землей.
Tmax - Максимальная температура - максимум температуры воздуха на высоте 2 м над землей.
R - Количество осадков - Количество выпавших осадков за период времени, мм. При наведении курсора мыши на число - период времени, за который выпало указанное количество осадков.
R24 - Количество осадков - Количество выпавших осадков за 24 часа, мм.
S - Снежный покров - Высота снежного покрова, см. При наведении курсора мыши на число - состояние снежного покрова и степень покрытия местности в баллах.